YUNHAI-2 3 (43911 NORAD) Tracking and Keplerian Element Data

This shows tracking and keplerian element data for the satellite.

Feedback or suggestion? Click here.




ElementValue
Catalog43911
NameYUNHAI-2 3
Epoch Orbit338
Epoch Day20.68442797
Epoch Year2019
RAAN76.5655
Inclination50.0143
Eccentricity0.0008598
Argument of Perigee358.0279
Mean Anonmoly147.7897
Mean Motion15.15891488
Decay Rate2E-06
L11 43911U 18112C 19020.68442797 .00000200 00000-0 26273-4 0 9996
L22 43911 50.0143 76.5655 0008598 358.0279 147.7897 15.15891488 3388

Live tracking and technical data element details for YUNHAI-2 3 (NORAD 43911). YUNHAI-2 3 can be tracked NOW for your location showing map with azimuth and elevation plus other details from your city location.

Track the satellite on the map from your city or location and see movement details for azimuth, elevation, latitude, longitude, range, height, and movement on the map or in text.







IsCatalogInMostPopularTable: catalog: 43911, numindb: 21
Update: records affected: 1



GetName: 43911 YUNHAI-2 3

Hit Count: updated at: Wed, 23 Jan 2019 02:49:00 GMT